| time (UTC) | temp F | wind direction | speed MPH | gust MPH | rain 1hr in | rain 24hr in | rain mn in | humidity % | barometer mb |
| 20260902201559 | 63 | 0 | 0.0 | 0.0 | 0.00 | 0.00 | 0.00 | 76 | 1021.3 |
| 20260902201046 | 64 | 0 | 0.0 | 0.0 | 0.00 | 0.00 | 0.00 | 76 | 1021.2 |
| 20260902200545 | 64 | 0 | 0.0 | 0.0 | 0.00 | 0.00 | 0.00 | 76 | 1021.2 |
| 20260902200109 | 64 | 0 | 0.0 | 0.0 | 0.00 | 0.00 | 0.00 | 76 | 1021.3 |
| 20260902195547 | 64 | 0 | 0.0 | 0.0 | 0.00 | 0.00 | 0.00 | 77 | 1021.4 |
| 20260902195042 | 64 | 0 | 0.0 | 0.0 | 0.00 | 0.00 | 0.00 | 77 | 1021.5 |
| 20260902194607 | 64 | 0 | 0.0 | 0.0 | 0.00 | 0.00 | 0.00 | 76 | 1021.5 |
| 20260902194046 | 64 | 0 | 0.0 | 0.0 | 0.00 | 0.00 | 0.00 | 76 | 1021.3 |
| 20260902193542 | 64 | 0 | 0.0 | 0.0 | 0.00 | 0.00 | 0.00 | 76 | 1021.5 |
| 20260902193104 | 64 | 0 | 0.0 | 0.0 | 0.00 | 0.00 | 0.00 | 76 | 1021.4 |
| 20260902192544 | 64 | 0 | 0.0 | 0.0 | 0.00 | 0.00 | 0.00 | 76 | 1021.4 |
| 20260902192043 | 64 | 0 | 0.0 | 0.0 | 0.00 | 0.00 | 0.00 | 76 | 1021.4 |
| 20260902191558 | 64 | 0 | 0.0 | 0.0 | 0.00 | 0.00 | 0.00 | 76 | 1021.3 |
| 20260902191045 | 64 | 0 | 0.0 | 0.0 | 0.00 | 0.00 | 0.00 | 78 | 1021.2 |
| 20260902190545 | 64 | 0 | 0.0 | 0.0 | 0.00 | 0.00 | 0.00 | 78 | 1021.3 |
| 20260902190108 | 64 | 0 | 0.0 | 0.0 | 0.00 | 0.00 | 0.00 | 79 | 1021.3 |
| 20260902185544 | 64 | 0 | 0.0 | 0.0 | 0.00 | 0.00 | 0.00 | 79 | 1021.4 |
| 20260902185043 | 64 | 0 | 0.0 | 0.0 | 0.00 | 0.00 | 0.00 | 78 | 1021.3 |
| 20260902184607 | 64 | 0 | 0.0 | 0.0 | 0.00 | 0.00 | 0.00 | 78 | 1021.3 |
| 20260902184043 | 64 | 0 | 0.0 | 0.0 | 0.00 | 0.00 | 0.00 | 78 | 1021.3 |
| 20260902183543 | 64 | 0 | 0.0 | 0.0 | 0.00 | 0.00 | 0.00 | 77 | 1021.3 |
| 20260902183109 | 64 | 0 | 0.0 | 0.0 | 0.00 | 0.00 | 0.00 | 77 | 1021.1 |
| 20260902182550 | 65 | 0 | 0.0 | 0.0 | 0.00 | 0.00 | 0.00 | 77 | 1021.1 |
| 20260902182043 | 65 | 0 | 0.0 | 0.0 | 0.00 | 0.00 | 0.00 | 76 | 1021.0 |
| 20260902181558 | 65 | 0 | 0.0 | 0.0 | 0.00 | 0.00 | 0.00 | 76 | 1021.0 |
| 20260902181043 | 65 | 0 | 0.0 | 0.0 | 0.00 | 0.00 | 0.00 | 75 | 1021.0 |
| 20260902180542 | 65 | 0 | 0.0 | 0.0 | 0.00 | 0.00 | 0.00 | 75 | 1020.9 |
| 20260902180106 | 65 | 0 | 0.0 | 0.0 | 0.00 | 0.00 | 0.00 | 74 | 1020.9 |
| 20260902175543 | 65 | 0 | 0.0 | 0.0 | 0.00 | 0.00 | 0.00 | 74 | 1020.9 |
| 20260902175045 | 65 | 0 | 0.0 | 0.0 | 0.00 | 0.00 | 0.00 | 73 | 1020.9 |
| 20260902174604 | 65 | 0 | 0.0 | 0.0 | 0.00 | 0.00 | 0.00 | 73 | 1020.9 |
| 20260902174044 | 66 | 0 | 0.0 | 0.0 | 0.00 | 0.00 | 0.00 | 73 | 1020.8 |
| 20260902173545 | 66 | 0 | 0.0 | 0.0 | 0.00 | 0.00 | 0.00 | 72 | 1020.9 |
| 20260902173136 | 66 | 0 | 0.0 | 0.0 | 0.00 | 0.00 | 0.00 | 72 | 1020.9 |
| 20260902172542 | 66 | 0 | 0.0 | 0.0 | 0.00 | 0.00 | 0.00 | 71 | 1020.8 |
| 20260902172043 | 66 | 0 | 0.0 | 0.0 | 0.00 | 0.00 | 0.00 | 70 | 1020.9 |
| 20260902171626 | 66 | 0 | 0.0 | 0.0 | 0.00 | 0.00 | 0.00 | 69 | 1020.9 |
| 20260902171042 | 67 | 0 | 0.0 | 0.0 | 0.00 | 0.00 | 0.00 | 69 | 1020.9 |
| 20260902170542 | 67 | 0 | 0.0 | 0.0 | 0.00 | 0.00 | 0.00 | 68 | 1020.9 |
| 20260902170111 | 67 | 0 | 0.0 | 0.0 | 0.00 | 0.00 | 0.00 | 68 | 1020.9 |
| 20260902165543 | 67 | 0 | 0.0 | 0.0 | 0.00 | 0.00 | 0.00 | 66 | 1021.0 |
| 20260902165044 | 67 | 0 | 0.0 | 0.0 | 0.00 | 0.00 | 0.00 | 66 | 1020.9 |
| 20260902164601 | 67 | 0 | 0.0 | 0.0 | 0.00 | 0.00 | 0.00 | 66 | 1020.9 |
| 20260902164043 | 67 | 0 | 0.0 | 2.0 | 0.00 | 0.00 | 0.00 | 66 | 1021.0 |
| 20260902163542 | 67 | 0 | 0.0 | 2.0 | 0.00 | 0.00 | 0.00 | 67 | 1021.0 |
| 20260902163107 | 67 | 0 | 0.0 | 5.0 | 0.00 | 0.00 | 0.00 | 66 | 1021.0 |
| 20260902162546 | 67 | 0 | 0.0 | 8.0 | 0.00 | 0.00 | 0.00 | 67 | 1021.1 |
| 20260902162045 | 67 | 0 | 0.0 | 8.0 | 0.00 | 0.00 | 0.00 | 66 | 1021.1 |
| 20260902161606 | 67 | 0 | 0.0 | 4.0 | 0.00 | 0.00 | 0.00 | 66 | 1021.1 |
| 20260902161043 | 67 | 0 | 0.0 | 4.0 | 0.00 | 0.00 | 0.00 | 67 | 1021.1 |
| 20260902160542 | 67 | 0 | 0.0 | 0.0 | 0.00 | 0.00 | 0.00 | 68 | 1021.2 |
| 20260902160105 | 67 | 0 | 0.0 | 0.0 | 0.00 | 0.00 | 0.00 | 66 | 1021.2 |
| 20260902155546 | 68 | 0 | 0.0 | 0.0 | 0.00 | 0.00 | 0.00 | 67 | 1021.1 |
| 20260902155045 | 68 | 0 | 0.0 | 8.0 | 0.00 | 0.00 | 0.00 | 65 | 1021.2 |
| 20260902154604 | 68 | 0 | 0.0 | 8.0 | 0.00 | 0.00 | 0.00 | 64 | 1021.1 |
| 20260902154046 | 68 | 0 | 1.0 | 8.0 | 0.00 | 0.00 | 0.00 | 65 | 1021.1 |
| 20260902153546 | 68 | 0 | 2.0 | 8.0 | 0.00 | 0.00 | 0.00 | 64 | 1021.3 |
| 20260902153104 | 68 | 0 | 0.0 | 9.0 | 0.00 | 0.00 | 0.00 | 64 | 1021.2 |
| 20260902152546 | 69 | 234 | 0.0 | 9.0 | 0.00 | 0.00 | 0.00 | 64 | 1021.2 |
| 20260902152046 | 69 | 0 | 2.0 | 9.0 | 0.00 | 0.00 | 0.00 | 64 | 1021.2 |
| 20260902151602 | 68 | 0 | 1.0 | 8.0 | 0.00 | 0.00 | 0.00 | 63 | 1021.2 |
| 20260902151047 | 68 | 236 | 0.0 | 10.0 | 0.00 | 0.00 | 0.00 | 64 | 1021.3 |
| 20260902150546 | 68 | 0 | 3.0 | 10.0 | 0.00 | 0.00 | 0.00 | 64 | 1021.2 |
| 20260902150106 | 69 | 209 | 0.0 | 9.0 | 0.00 | 0.00 | 0.00 | 63 | 1021.3 |
| 20260902145546 | 69 | 249 | 1.0 | 9.0 | 0.00 | 0.00 | 0.00 | 62 | 1021.4 |
| 20260902145045 | 69 | 0 | 1.0 | 6.0 | 0.00 | 0.00 | 0.00 | 63 | 1021.4 |
| 20260902144556 | 69 | 0 | 0.0 | 1.0 | 0.00 | 0.00 | 0.00 | 63 | 1021.3 |
| 20260902144047 | 69 | 0 | 0.0 | 6.0 | 0.00 | 0.00 | 0.00 | 63 | 1021.3 |
| 20260902143550 | 69 | 0 | 1.0 | 6.0 | 0.00 | 0.00 | 0.00 | 63 | 1021.3 |
| 20260902143109 | 68 | 0 | 0.0 | 6.0 | 0.00 | 0.00 | 0.00 | 62 | 1021.3 |
| 20260902142547 | 68 | 0 | 0.0 | 5.0 | 0.00 | 0.00 | 0.00 | 65 | 1021.2 |
| 20260902142047 | 68 | 0 | 1.0 | 6.0 | 0.00 | 0.00 | 0.00 | 63 | 1021.3 |
| 20260902141610 | 68 | 0 | 0.0 | 6.0 | 0.00 | 0.00 | 0.00 | 62 | 1021.4 |
| 20260902141046 | 68 | 0 | 0.0 | 8.0 | 0.00 | 0.00 | 0.00 | 62 | 1021.2 |
| 20260902140547 | 69 | 0 | 0.0 | 8.0 | 0.00 | 0.00 | 0.00 | 61 | 1021.2 |
| 20260902135546 | 69 | 0 | 0.0 | 2.0 | 0.00 | 0.00 | 0.00 | 60 | 1021.3 |
| 20260902135046 | 69 | 0 | 0.0 | 7.0 | 0.00 | 0.00 | 0.00 | 60 | 1021.1 |
| 20260902134558 | 68 | 0 | 0.0 | 7.0 | 0.00 | 0.00 | 0.00 | 60 | 1021.1 |
| 20260902134045 | 68 | 0 | 0.0 | 4.0 | 0.00 | 0.00 | 0.00 | 60 | 1021.2 |
| 20260902133547 | 68 | 0 | 0.0 | 7.0 | 0.00 | 0.00 | 0.00 | 59 | 1021.1 |
| 20260902133106 | 69 | 0 | 0.0 | 8.0 | 0.00 | 0.00 | 0.00 | 60 | 1021.2 |
| 20260902132544 | 69 | 257 | 0.0 | 8.0 | 0.00 | 0.00 | 0.00 | 58 | 1021.2 |
| 20260902132047 | 69 | 0 | 0.0 | 10.0 | 0.00 | 0.00 | 0.00 | 58 | 1021.2 |
| 20260902131628 | 69 | 249 | 3.0 | 10.0 | 0.00 | 0.00 | 0.00 | 56 | 1021.2 |
| 20260902131046 | 70 | 0 | 0.0 | 7.0 | 0.00 | 0.00 | 0.00 | 59 | 1021.1 |
| 20260902130546 | 69 | 0 | 0.0 | 7.0 | 0.00 | 0.00 | 0.00 | 58 | 1021.2 |
| 20260902130059 | 69 | 0 | 0.0 | 7.0 | 0.00 | 0.00 | 0.00 | 58 | 1021.3 |
| 20260902125546 | 70 | 0 | 0.0 | 8.0 | 0.00 | 0.00 | 0.00 | 60 | 1021.3 |
| 20260902125047 | 70 | 0 | 0.0 | 8.0 | 0.00 | 0.00 | 0.00 | 59 | 1021.3 |
| 20260902124609 | 69 | 0 | 0.0 | 7.0 | 0.00 | 0.00 | 0.00 | 59 | 1021.4 |
| 20260902124046 | 71 | 0 | 2.0 | 10.0 | 0.00 | 0.00 | 0.00 | 60 | 1021.4 |
| 20260902123550 | 70 | 0 | 1.0 | 10.0 | 0.00 | 0.00 | 0.00 | 60 | 1021.5 |
| 20260902123152 | 69 | 0 | 4.0 | 10.0 | 0.00 | 0.00 | 0.00 | 61 | 1021.4 |
| 20260902122549 | 68 | 233 | 0.0 | 9.0 | 0.00 | 0.00 | 0.00 | 62 | 1021.4 |
| 20260902122046 | 68 | 0 | 2.0 | 9.0 | 0.00 | 0.00 | 0.00 | 63 | 1021.5 |
| 20260902121602 | 67 | 0 | 0.0 | 9.0 | 0.00 | 0.00 | 0.00 | 64 | 1021.6 |
| 20260902121046 | 67 | 259 | 1.0 | 9.0 | 0.00 | 0.00 | 0.00 | 65 | 1021.4 |
| 20260902120545 | 68 | 223 | 0.0 | 6.0 | 0.00 | 0.00 | 0.00 | 66 | 1021.4 |
| 20260902115548 | 67 | 0 | 1.0 | 7.0 | 0.00 | 0.00 | 0.00 | 64 | 1021.3 |
| 20260902115045 | 68 | 0 | 0.0 | 11.0 | 0.00 | 0.00 | 0.00 | 63 | 1021.4 |
| 20260902114557 | 68 | 0 | 2.0 | 11.0 | 0.00 | 0.00 | 0.00 | 62 | 1021.4 |
| 20260902114044 | 68 | 227 | 2.0 | 8.0 | 0.00 | 0.00 | 0.00 | 63 | 1021.4 |
| 20260902113542 | 68 | 0 | 0.0 | 8.0 | 0.00 | 0.00 | 0.00 | 63 | 1021.4 |
| 20260902113102 | 68 | 242 | 1.0 | 8.0 | 0.00 | 0.00 | 0.00 | 62 | 1021.4 |
| 20260902112544 | 68 | 0 | 2.0 | 8.0 | 0.00 | 0.00 | 0.00 | 60 | 1021.5 |
| 20260902112043 | 67 | 195 | 0.0 | 13.0 | 0.00 | 0.00 | 0.00 | 64 | 1021.5 |
| 20260902111602 | 67 | 0 | 0.0 | 13.0 | 0.00 | 0.00 | 0.00 | 63 | 1021.4 |
| 20260902111042 | 68 | 0 | 3.0 | 13.0 | 0.00 | 0.00 | 0.00 | 62 | 1021.4 |
| 20260902110542 | 69 | 238 | 2.0 | 10.0 | 0.00 | 0.00 | 0.00 | 62 | 1021.4 |
| 20260902110111 | 68 | 0 | 1.0 | 11.0 | 0.00 | 0.00 | 0.00 | 63 | 1021.4 |
| 20260902105545 | 68 | 229 | 4.0 | 13.0 | 0.00 | 0.00 | 0.00 | 63 | 1021.5 |
| 20260902105042 | 68 | 0 | 1.0 | 13.0 | 0.00 | 0.00 | 0.00 | 63 | 1021.4 |
| 20260902104608 | 68 | 219 | 1.0 | 9.0 | 0.00 | 0.00 | 0.00 | 66 | 1021.5 |
| 20260902104045 | 68 | 0 | 1.0 | 8.0 | 0.00 | 0.00 | 0.00 | 63 | 1021.5 |
| 20260902103541 | 68 | 224 | 0.0 | 7.0 | 0.00 | 0.00 | 0.00 | 64 | 1021.4 |
| 20260902103103 | 67 | 0 | 0.0 | 7.0 | 0.00 | 0.00 | 0.00 | 66 | 1021.5 |
| 20260902102542 | 66 | 0 | 0.0 | 10.0 | 0.00 | 0.00 | 0.00 | 65 | 1021.5 |
| 20260902102042 | 66 | 0 | 0.0 | 12.0 | 0.00 | 0.00 | 0.00 | 64 | 1021.5 |
| 20260902101558 | 66 | 225 | 3.0 | 12.0 | 0.00 | 0.00 | 0.00 | 66 | 1021.5 |
| 20260902101046 | 66 | 0 | 1.0 | 7.0 | 0.00 | 0.00 | 0.00 | 68 | 1021.5 |
| 20260902100546 | 67 | 0 | 0.0 | 8.0 | 0.00 | 0.00 | 0.00 | 64 | 1021.5 |
| 20260902095546 | 67 | 0 | 1.0 | 7.0 | 0.00 | 0.00 | 0.00 | 68 | 1021.4 |
| 20260902095044 | 67 | 0 | 0.0 | 5.0 | 0.00 | 0.00 | 0.00 | 72 | 1021.3 |
| 20260902094605 | 67 | 0 | 0.0 | 5.0 | 0.00 | 0.00 | 0.00 | 71 | 1021.4 |
| 20260902094045 | 66 | 0 | 0.0 | 5.0 | 0.00 | 0.00 | 0.00 | 72 | 1021.4 |
| 20260902093542 | 67 | 0 | 0.0 | 5.0 | 0.00 | 0.00 | 0.00 | 69 | 1021.5 |
| 20260902093100 | 67 | 0 | 0.0 | 2.0 | 0.00 | 0.00 | 0.00 | 74 | 1021.5 |
| 20260902092545 | 66 | 0 | 0.0 | 3.0 | 0.00 | 0.00 | 0.00 | 74 | 1021.6 |
| 20260902092042 | 65 | 0 | 0.0 | 5.0 | 0.00 | 0.00 | 0.00 | 74 | 1021.5 |
| 20260902091610 | 65 | 0 | 0.0 | 7.0 | 0.00 | 0.00 | 0.00 | 74 | 1021.5 |
| 20260902091045 | 65 | 218 | 0.0 | 7.0 | 0.00 | 0.00 | 0.00 | 73 | 1021.4 |
| 20260902090549 | 65 | 0 | 0.0 | 0.0 | 0.00 | 0.00 | 0.00 | 74 | 1021.5 |
| 20260902090109 | 65 | 0 | 0.0 | 0.0 | 0.00 | 0.00 | 0.00 | 74 | 1021.5 |
| 20260902085546 | 65 | 0 | 0.0 | 0.0 | 0.00 | 0.00 | 0.00 | 74 | 1021.5 |
| 20260902085046 | 65 | 0 | 0.0 | 0.0 | 0.00 | 0.00 | 0.00 | 74 | 1021.5 |
| 20260902084555 | 65 | 0 | 0.0 | 4.0 | 0.00 | 0.00 | 0.00 | 73 | 1021.5 |
| 20260902084046 | 66 | 0 | 0.0 | 4.0 | 0.00 | 0.00 | 0.00 | 73 | 1021.5 |
| 20260902083546 | 66 | 0 | 0.0 | 0.0 | 0.00 | 0.00 | 0.00 | 73 | 1021.5 |
| 20260902083058 | 66 | 0 | 0.0 | 4.0 | 0.00 | 0.00 | 0.00 | 75 | 1021.4 |
| 20260902082546 | 65 | 0 | 0.0 | 7.0 | 0.00 | 0.00 | 0.00 | 75 | 1021.5 |
| 20260902082046 | 65 | 0 | 0.0 | 7.0 | 0.00 | 0.00 | 0.00 | 74 | 1021.6 |
| 20260902081601 | 65 | 0 | 0.0 | 7.0 | 0.00 | 0.00 | 0.00 | 75 | 1021.5 |
| 20260902081046 | 65 | 0 | 0.0 | 7.0 | 0.00 | 0.00 | 0.00 | 76 | 1021.4 |
| 20260902080547 | 65 | 0 | 0.0 | 6.0 | 0.00 | 0.00 | 0.00 | 77 | 1021.4 |
| 20260902080100 | 64 | 0 | 1.0 | 6.0 | 0.00 | 0.00 | 0.00 | 79 | 1021.3 |
| 20260902075546 | 64 | 0 | 0.0 | 0.0 | 0.00 | 0.00 | 0.00 | 80 | 1021.2 |
| 20260902075047 | 63 | 0 | 0.0 | 0.0 | 0.00 | 0.00 | 0.00 | 80 | 1021.3 |
| 20260902074601 | 63 | 0 | 0.0 | 0.0 | 0.00 | 0.00 | 0.00 | 83 | 1021.1 |
| 20260902074048 | 63 | 0 | 0.0 | 0.0 | 0.00 | 0.00 | 0.00 | 83 | 1021.1 |
| 20260902073546 | 63 | 0 | 0.0 | 0.0 | 0.00 | 0.00 | 0.00 | 84 | 1021.3 |
| 20260902073103 | 63 | 0 | 0.0 | 0.0 | 0.00 | 0.00 | 0.00 | 83 | 1021.3 |
| 20260902072545 | 62 | 0 | 0.0 | 0.0 | 0.00 | 0.00 | 0.00 | 86 | 1021.2 |
| 20260902072048 | 61 | 0 | 0.0 | 0.0 | 0.00 | 0.00 | 0.00 | 88 | 1021.1 |
| 20260902071603 | 61 | 0 | 0.0 | 0.0 | 0.00 | 0.00 | 0.00 | 87 | 1021.0 |
| 20260902071046 | 61 | 0 | 0.0 | 0.0 | 0.00 | 0.00 | 0.00 | 88 | 1021.0 |
| 20260902070545 | 61 | 0 | 0.0 | 0.0 | 0.00 | 0.00 | 0.00 | 89 | 1021.0 |
| 20260902065548 | 60 | 0 | 0.0 | 0.0 | 0.00 | 0.00 | 0.00 | 91 | 1020.9 |
| 20260902065046 | 59 | 0 | 0.0 | 0.0 | 0.00 | 0.00 | 0.00 | 92 | 1020.8 |
| 20260902064606 | 59 | 0 | 0.0 | 0.0 | 0.00 | 0.00 | 0.00 | 93 | 1020.8 |
| 20260902064046 | 58 | 0 | 0.0 | 0.0 | 0.00 | 0.00 | 0.00 | 93 | 1020.9 |
| 20260902063546 | 58 | 0 | 0.0 | 0.0 | 0.00 | 0.00 | 0.00 | 93 | 1020.8 |
| 20260902063104 | 58 | 0 | 0.0 | 0.0 | 0.00 | 0.00 | 0.00 | 93 | 1020.8 |
| 20260902062547 | 58 | 0 | 0.0 | 0.0 | 0.00 | 0.00 | 0.00 | 94 | 1020.6 |
| 20260902062047 | 58 | 0 | 0.0 | 0.0 | 0.00 | 0.00 | 0.00 | 94 | 1020.8 |
| 20260902061627 | 58 | 0 | 0.0 | 0.0 | 0.00 | 0.00 | 0.00 | 94 | 1020.8 |
| 20260902061048 | 58 | 0 | 0.0 | 0.0 | 0.00 | 0.00 | 0.00 | 94 | 1020.8 |
| 20260902060546 | 57 | 0 | 0.0 | 0.0 | 0.00 | 0.00 | 0.00 | 94 | 1020.8 |
| 20260902060115 | 57 | 0 | 0.0 | 0.0 | 0.00 | 0.00 | 0.00 | 94 | 1020.7 |
| 20260902055547 | 57 | 0 | 0.0 | 0.0 | 0.00 | 0.00 | 0.00 | 95 | 1020.8 |
| 20260902055042 | 57 | 0 | 0.0 | 0.0 | 0.00 | 0.00 | 0.00 | 94 | 1020.9 |
| 20260902054555 | 56 | 0 | 0.0 | 0.0 | 0.00 | 0.00 | 0.00 | 94 | 1020.9 |
| 20260902054044 | 56 | 0 | 0.0 | 0.0 | 0.00 | 0.00 | 0.00 | 94 | 1020.9 |
| 20260902053541 | 56 | 0 | 0.0 | 0.0 | 0.00 | 0.00 | 0.00 | 94 | 1020.8 |
| 20260902053102 | 56 | 0 | 0.0 | 0.0 | 0.00 | 0.00 | 0.00 | 94 | 1020.8 |
| 20260902052545 | 56 | 0 | 0.0 | 0.0 | 0.00 | 0.00 | 0.00 | 94 | 1020.9 |
| 20260902052041 | 56 | 0 | 0.0 | 0.0 | 0.00 | 0.00 | 0.00 | 94 | 1020.7 |
| 20260902051558 | 56 | 0 | 0.0 | 0.0 | 0.00 | 0.00 | 0.00 | 94 | 1020.7 |
| 20260902051042 | 56 | 0 | 0.0 | 0.0 | 0.00 | 0.00 | 0.00 | 94 | 1020.5 |
| 20260902050542 | 56 | 0 | 0.0 | 0.0 | 0.00 | 0.00 | 0.00 | 94 | 1020.6 |
| 20260902050059 | 56 | 0 | 0.0 | 0.0 | 0.00 | 0.00 | 0.00 | 94 | 1020.4 |
| 20260902045541 | 56 | 0 | 0.0 | 0.0 | 0.00 | 0.00 | 0.00 | 94 | 1020.4 |
| 20260902045044 | 56 | 0 | 0.0 | 0.0 | 0.00 | 0.00 | 0.00 | 93 | 1020.5 |
| 20260902044558 | 56 | 0 | 0.0 | 0.0 | 0.00 | 0.00 | 0.00 | 94 | 1020.5 |
| 20260902044045 | 56 | 0 | 0.0 | 0.0 | 0.00 | 0.00 | 0.00 | 94 | 1020.5 |
| 20260902043542 | 56 | 0 | 0.0 | 0.0 | 0.00 | 0.00 | 0.00 | 94 | 1020.5 |
| 20260902043106 | 56 | 0 | 0.0 | 0.0 | 0.00 | 0.00 | 0.00 | 94 | 1020.4 |
| 20260902042544 | 56 | 0 | 0.0 | 0.0 | 0.00 | 0.00 | 0.00 | 94 | 1020.5 |
| 20260902042042 | 56 | 0 | 0.0 | 0.0 | 0.00 | 0.00 | 0.00 | 94 | 1020.6 |
| 20260902041601 | 56 | 0 | 0.0 | 0.0 | 0.00 | 0.00 | 0.00 | 94 | 1020.6 |
| 20260902041042 | 55 | 0 | 0.0 | 0.0 | 0.00 | 0.00 | 0.00 | 94 | 1020.6 |
| 20260902040545 | 55 | 0 | 0.0 | 0.0 | 0.00 | 0.00 | 0.00 | 94 | 1020.6 |
| 20260902040100 | 55 | 0 | 0.0 | 0.0 | 0.00 | 0.00 | 0.00 | 94 | 1020.6 |
| 20260902035541 | 55 | 0 | 0.0 | 0.0 | 0.00 | 0.00 | 0.00 | 93 | 1020.6 |
| 20260902035041 | 55 | 0 | 0.0 | 0.0 | 0.00 | 0.00 | 0.00 | 93 | 1020.8 |
| 20260902034611 | 55 | 0 | 0.0 | 0.0 | 0.00 | 0.00 | 0.00 | 93 | 1020.6 |
| 20260902034041 | 55 | 0 | 0.0 | 0.0 | 0.00 | 0.00 | 0.00 | 94 | 1020.6 |
| 20260902033541 | 55 | 0 | 0.0 | 0.0 | 0.00 | 0.00 | 0.00 | 94 | 1020.6 |
| 20260902033100 | 55 | 0 | 0.0 | 0.0 | 0.00 | 0.00 | 0.00 | 93 | 1020.6 |
| 20260902032542 | 55 | 0 | 0.0 | 0.0 | 0.00 | 0.00 | 0.00 | 93 | 1020.6 |
| 20260902032042 | 55 | 0 | 0.0 | 0.0 | 0.00 | 0.00 | 0.00 | 93 | 1020.5 |
| 20260902031604 | 56 | 0 | 0.0 | 0.0 | 0.00 | 0.00 | 0.00 | 93 | 1020.5 |
| 20260902031042 | 56 | 0 | 0.0 | 0.0 | 0.00 | 0.00 | 0.00 | 93 | 1020.6 |
| 20260902030542 | 55 | 0 | 0.0 | 0.0 | 0.00 | 0.00 | 0.00 | 93 | 1020.7 |
| 20260902030105 | 55 | 0 | 0.0 | 0.0 | 0.00 | 0.00 | 0.00 | 93 | 1020.7 |
| 20260902025543 | 55 | 0 | 0.0 | 0.0 | 0.00 | 0.00 | 0.00 | 93 | 1020.8 |
| 20260902025047 | 55 | 0 | 0.0 | 0.0 | 0.00 | 0.00 | 0.00 | 93 | 1020.9 |
| 20260902024605 | 55 | 0 | 0.0 | 0.0 | 0.00 | 0.00 | 0.00 | 93 | 1021.0 |
| 20260902024046 | 55 | 0 | 0.0 | 0.0 | 0.00 | 0.00 | 0.00 | 94 | 1021.0 |
| 20260902023546 | 55 | 0 | 0.0 | 0.0 | 0.00 | 0.00 | 0.00 | 94 | 1021.1 |
| 20260902023103 | 55 | 0 | 0.0 | 0.0 | 0.00 | 0.00 | 0.00 | 93 | 1021.1 |
| 20260902022546 | 55 | 0 | 0.0 | 0.0 | 0.00 | 0.00 | 0.00 | 93 | 1021.2 |
| 20260902022045 | 55 | 0 | 0.0 | 0.0 | 0.00 | 0.00 | 0.00 | 93 | 1021.1 |
| 20260902021630 | 55 | 0 | 0.0 | 0.0 | 0.00 | 0.00 | 0.00 | 93 | 1021.3 |
| 20260902021046 | 55 | 0 | 0.0 | 0.0 | 0.00 | 0.00 | 0.00 | 93 | 1021.1 |
| 20260902020546 | 55 | 0 | 0.0 | 0.0 | 0.00 | 0.00 | 0.00 | 93 | 1021.0 |
| 20260902020107 | 56 | 0 | 0.0 | 0.0 | 0.00 | 0.00 | 0.00 | 93 | 1020.9 |
| 20260902015549 | 56 | 0 | 0.0 | 0.0 | 0.00 | 0.00 | 0.00 | 93 | 1021.0 |
| 20260902015050 | 56 | 0 | 0.0 | 0.0 | 0.00 | 0.00 | 0.00 | 93 | 1021.0 |
| 20260902014614 | 56 | 0 | 0.0 | 0.0 | 0.00 | 0.00 | 0.00 | 93 | 1021.0 |
| 20260902014050 | 56 | 0 | 0.0 | 0.0 | 0.00 | 0.00 | 0.00 | 93 | 1021.0 |
| 20260902013546 | 56 | 0 | 0.0 | 0.0 | 0.00 | 0.00 | 0.00 | 93 | 1021.0 |
| 20260902013059 | 56 | 0 | 0.0 | 0.0 | 0.00 | 0.00 | 0.00 | 94 | 1021.0 |
| 20260902012545 | 56 | 0 | 0.0 | 0.0 | 0.00 | 0.00 | 0.00 | 94 | 1021.0 |
| 20260902012047 | 56 | 0 | 0.0 | 0.0 | 0.00 | 0.00 | 0.00 | 94 | 1021.3 |
| 20260902011557 | 56 | 0 | 0.0 | 0.0 | 0.00 | 0.00 | 0.00 | 94 | 1021.2 |
| 20260902011049 | 56 | 0 | 0.0 | 0.0 | 0.00 | 0.00 | 0.00 | 94 | 1021.2 |
| 20260902010546 | 56 | 0 | 0.0 | 0.0 | 0.00 | 0.00 | 0.00 | 94 | 1021.1 |
| 20260902010108 | 56 | 0 | 0.0 | 0.0 | 0.00 | 0.00 | 0.00 | 94 | 1021.1 |
| 20260902005545 | 56 | 0 | 0.0 | 0.0 | 0.00 | 0.00 | 0.00 | 95 | 1021.1 |
| 20260902005045 | 56 | 0 | 0.0 | 0.0 | 0.00 | 0.00 | 0.00 | 95 | 1021.2 |
| 20260902004603 | 56 | 0 | 0.0 | 0.0 | 0.00 | 0.00 | 0.00 | 95 | 1021.3 |
| 20260902004046 | 55 | 0 | 0.0 | 0.0 | 0.00 | 0.00 | 0.00 | 95 | 1021.3 |
| 20260902003546 | 55 | 0 | 0.0 | 0.0 | 0.00 | 0.00 | 0.00 | 95 | 1021.3 |
| 20260902003103 | 55 | 0 | 0.0 | 0.0 | 0.00 | 0.00 | 0.00 | 95 | 1021.3 |
| 20260902002545 | 55 | 0 | 0.0 | 0.0 | 0.00 | 0.00 | 0.00 | 95 | 1021.4 |
| 20260902002046 | 55 | 0 | 0.0 | 0.0 | 0.00 | 0.00 | 0.00 | 95 | 1021.2 |
| 20260902001556 | 55 | 0 | 0.0 | 0.0 | 0.00 | 0.00 | 0.00 | 95 | 1021.3 |
| 20260902001045 | 55 | 0 | 0.0 | 0.0 | 0.00 | 0.00 | 0.00 | 94 | 1021.3 |
| 20260902000545 | 55 | 0 | 0.0 | 0.0 | 0.00 | 0.00 | 0.00 | 94 | 1021.3 |
| 20260902000108 | 55 | 0 | 0.0 | 0.0 | 0.00 | 0.00 | 0.00 | 95 | 1021.3 |
| 20260901235549 | 55 | 0 | 0.0 | 0.0 | 0.00 | 0.00 | 0.00 | 95 | 1021.2 |
| 20260901235045 | 55 | 0 | 0.0 | 0.0 | 0.00 | 0.00 | 0.00 | 95 | 1021.1 |
| 20260901234605 | 55 | 0 | 0.0 | 0.0 | 0.00 | 0.00 | 0.00 | 95 | 1021.3 |
| 20260901234048 | 54 | 0 | 0.0 | 0.0 | 0.00 | 0.00 | 0.00 | 95 | 1021.4 |
| 20260901233618 | 54 | 0 | 0.0 | 0.0 | 0.00 | 0.00 | 0.00 | 95 | 1021.5 |
| 20260901233110 | 54 | 0 | 0.0 | 0.0 | 0.00 | 0.00 | 0.00 | 95 | 1021.5 |
| 20260901232542 | 54 | 0 | 0.0 | 0.0 | 0.00 | 0.00 | 0.00 | 95 | 1021.5 |
| 20260901232042 | 54 | 0 | 0.0 | 0.0 | 0.00 | 0.00 | 0.00 | 95 | 1021.5 |
| 20260901231607 | 54 | 0 | 0.0 | 0.0 | 0.00 | 0.00 | 0.00 | 95 | 1021.5 |
| 20260901231046 | 54 | 0 | 0.0 | 0.0 | 0.00 | 0.00 | 0.00 | 95 | 1021.5 |
| 20260901230546 | 53 | 0 | 0.0 | 0.0 | 0.00 | 0.00 | 0.00 | 95 | 1021.7 |
| 20260901230105 | 53 | 0 | 0.0 | 0.0 | 0.00 | 0.00 | 0.00 | 95 | 1021.8 |
| 20260901225547 | 54 | 0 | 0.0 | 0.0 | 0.00 | 0.00 | 0.00 | 95 | 1021.9 |
| 20260901225045 | 54 | 0 | 0.0 | 0.0 | 0.00 | 0.00 | 0.00 | 95 | 1022.0 |
| 20260901224605 | 53 | 0 | 0.0 | 0.0 | 0.00 | 0.00 | 0.00 | 95 | 1021.9 |
| 20260901224046 | 53 | 0 | 0.0 | 0.0 | 0.00 | 0.00 | 0.00 | 95 | 1022.0 |
| 20260901223546 | 53 | 0 | 0.0 | 0.0 | 0.00 | 0.00 | 0.00 | 95 | 1022.1 |
| 20260901223109 | 53 | 0 | 0.0 | 0.0 | 0.00 | 0.00 | 0.00 | 95 | 1022.0 |
| 20260901222545 | 53 | 0 | 0.0 | 0.0 | 0.00 | 0.00 | 0.00 | 95 | 1022.0 |
| 20260901222047 | 53 | 0 | 0.0 | 0.0 | 0.00 | 0.00 | 0.00 | 95 | 1022.1 |
| 20260901221607 | 54 | 0 | 0.0 | 0.0 | 0.00 | 0.00 | 0.00 | 94 | 1022.1 |
| 20260901221046 | 54 | 0 | 0.0 | 0.0 | 0.00 | 0.00 | 0.00 | 94 | 1022.0 |
| 20260901220545 | 54 | 0 | 0.0 | 0.0 | 0.00 | 0.00 | 0.00 | 94 | 1022.0 |
| 20260901220107 | 54 | 0 | 0.0 | 0.0 | 0.00 | 0.00 | 0.00 | 94 | 1021.9 |
| 20260901215546 | 54 | 0 | 0.0 | 0.0 | 0.00 | 0.00 | 0.00 | 94 | 1021.8 |
| 20260901215045 | 54 | 0 | 0.0 | 0.0 | 0.00 | 0.00 | 0.00 | 94 | 1021.9 |
| 20260901214601 | 54 | 0 | 0.0 | 0.0 | 0.00 | 0.00 | 0.00 | 94 | 1021.9 |
| 20260901214046 | 54 | 0 | 0.0 | 0.0 | 0.00 | 0.00 | 0.00 | 94 | 1022.0 |
| 20260901213547 | 54 | 0 | 0.0 | 0.0 | 0.00 | 0.00 | 0.00 | 94 | 1021.9 |
| 20260901213102 | 54 | 0 | 0.0 | 0.0 | 0.00 | 0.00 | 0.00 | 94 | 1021.9 |
| 20260901212546 | 54 | 0 | 0.0 | 0.0 | 0.00 | 0.00 | 0.00 | 94 | 1021.9 |
| 20260901212046 | 55 | 0 | 0.0 | 0.0 | 0.00 | 0.00 | 0.00 | 94 | 1021.8 |
| 20260901211603 | 55 | 0 | 0.0 | 0.0 | 0.00 | 0.00 | 0.00 | 93 | 1021.7 |
| 20260901211050 | 55 | 0 | 0.0 | 0.0 | 0.00 | 0.00 | 0.00 | 93 | 1021.7 |
| 20260901210545 | 55 | 0 | 0.0 | 0.0 | 0.00 | 0.00 | 0.00 | 93 | 1021.7 |
| 20260901210114 | 55 | 0 | 0.0 | 0.0 | 0.00 | 0.00 | 0.00 | 93 | 1021.7 |
| 20260901205546 | 55 | 0 | 0.0 | 0.0 | 0.00 | 0.00 | 0.00 | 93 | 1021.6 |
| 20260901205045 | 55 | 0 | 0.0 | 0.0 | 0.00 | 0.00 | 0.00 | 93 | 1021.7 |
| 20260901204559 | 56 | 0 | 0.0 | 0.0 | 0.00 | 0.00 | 0.00 | 92 | 1021.6 |
| 20260901204047 | 56 | 0 | 0.0 | 0.0 | 0.00 | 0.00 | 0.00 | 92 | 1021.6 |
| 20260901203546 | 56 | 0 | 0.0 | 0.0 | 0.00 | 0.00 | 0.00 | 92 | 1021.5 |
| 20260901203116 | 56 | 0 | 0.0 | 0.0 | 0.00 | 0.00 | 0.00 | 92 | 1021.5 |
| 20260901202548 | 56 | 0 | 0.0 | 0.0 | 0.00 | 0.00 | 0.00 | 91 | 1021.5 |
| 20260901202046 | 56 | 0 | 0.0 | 0.0 | 0.00 | 0.00 | 0.00 | 91 | 1021.6 |